Theta_e
310 310 310 310 310 310 310 310 310 310 310 310 310 310 310 310 310 310 310 310 310 310 311 312 313 314 314 314 315 316 316 315 315 315 316 316 316 316 317 317 317 317 318 317 318 317 317 317 316 316 316 317 317 318 319 322 321 321 326 325 324 327 326 330 328 320 322 325 319 316 317 317 318 317 317 317 317 316 316 317 318 317 317 317 317 317 317 317
310 310 310 310 310 310 310 310 310 310 310 310 310 310 310 310 310 310 310 310 310 310 310 310 311 312 313 314 314 314 316 316 316 316 316 316 316 316 316 316 316 317 318 317 318 318 319 319 317 317 317 317 318 320 320 322 320 322 329 325 326 331 326 323 322 318 319 319 317 317 317 317 318 317 316 317 317 315 316 316 316 316 317 316 317 317 316 316
310 310 310 310 310 310 310 310 311 311 311 311 310 310 310 310 310 310 310 311 310 310 310 310 310 310 311 313 314 314 314 316 316 316 317 317 317 316 316 316 316 317 318 318 318 319 319 319 318 317 317 318 319 320 321 322 321 321 323 325 331 330 322 320 319 318 318 318 317 316 317 316 317 317 315 316 316 316 316 315 314 315 316 316 316 316 316 316
310 310 310 310 310 310 311 311 311 311 311 311 311 311 311 311 311 311 311 311 311 311 311 311 311 310 310 311 312 313 315 316 317 318 319 319 318 317 316 316 316 317 318 318 317 318 318 319 319 318 317 317 318 320 321 321 322 320 320 325 327 321 319 321 319 318 318 317 317 316 316 316 316 317 315 315 316 317 315 315 316 316 317 316 316 316 315 316
310 310 310 310 310 311 311 311 311 312 312 312 312 312 312 312 312 312 312 312 312 312 312 312 312 311 311 311 310 312 314 317 321 321 319 318 318 318 317 317 316 316 317 318 318 317 317 318 318 318 317 318 317 319 321 321 321 321 319 320 320 318 320 321 318 318 318 317 317 316 316 316 316 316 316 315 316 317 315 316 317 317 317 317 316 316 316 316
310 310 310 310 310 311 311 311 312 312 312 312 312 312 312 312 313 313 313 313 313 313 313 313 313 312 312 312 311 311 312 315 320 319 317 317 316 316 317 317 316 315 316 318 318 318 317 317 317 317 317 317 318 319 320 320 320 322 321 318 318 318 319 320 319 318 317 317 316 315 316 315 315 316 316 315 315 317 316 316 317 317 317 316 316 316 316 316
310 310 310 310 311 311 311 311 312 312 313 313 313 313 312 312 313 313 313 313 314 314 314 314 313 313 313 313 311 312 313 313 314 315 314 315 315 316 317 316 316 315 315 317 318 318 318 317 318 318 317 318 318 318 318 319 319 321 322 318 318 319 318 319 318 317 317 316 316 316 315 315 315 316 316 315 316 317 316 316 316 317 317 316 316 316 316 316
310 310 310 310 310 311 311 311 312 312 313 313 313 313 313 313 313 313 314 314 314 314 314 314 314 314 313 313 312 313 314 314 315 316 316 317 318 319 318 316 315 315 315 316 317 317 317 317 317 318 317 318 318 318 318 318 318 319 320 318 317 318 317 318 317 316 316 316 316 316 314 314 315 315 314 314 316 316 316 316 316 316 316 316 316 316 316 316
310 310 310 310 310 311 311 311 311 311 312 312 312 313 313 313 313 313 313 314 314 314 314 314 314 314 314 313 312 314 316 318 319 318 318 319 320 319 317 317 315 315 314 315 316 316 317 317 317 318 318 318 318 318 317 318 319 318 317 317 315 315 316 317 316 316 316 315 316 315 314 314 314 314 314 315 316 316 316 316 316 315 316 316 316 316 316 316
310 310 310 310 310 310 311 311 311 311 311 311 312 312 312 312 312 313 313 314 314 314 314 314 314 314 314 313 313 316 317 318 318 316 316 317 317 316 315 316 315 315 313 314 314 315 316 317 317 318 318 318 317 317 316 318 319 316 315 315 314 314 315 315 315 316 316 315 315 315 315 314 313 314 315 316 316 315 316 316 316 316 315 316 316 316 316 316
312 312 312 312 312 312 312 312 312 312 312 312 312 312 313 313 313 313 314 314 314 314 314 314 314 314 313 313 314 316 317 316 316 315 316 315 315 315 314 315 316 315 314 314 314 314 315 316 317 317 317 317 317 316 317 317 317 315 315 315 315 314 315 315 315 315 314 314 314 315 315 313 313 314 315 316 316 315 315 315 316 316 316 316 316 316 316 316
313 314 313 314 314 314 314 314 314 314 314 314 314 314 314 314 314 314 314 314 314 314 314 314 314 314 313 312 313 315 316 315 315 315 315 315 315 314 314 314 315 316 315 314 314 314 315 315 316 317 317 316 316 316 316 316 315 315 315 316 316 314 315 315 315 315 314 315 315 314 315 315 314 314 315 316 316 315 315 315 315 315 316 316 316 316 316 316
311 311 312 312 312 312 313 313 313 314 314 314 315 315 315 315 315 315 315 315 314 314 314 314 314 313 312 312 314 315 315 315 315 315 315 315 315 314 314 313 313 315 316 315 315 314 315 315 315 316 316 316 316 316 315 315 315 316 314 315 316 315 317 316 314 316 314 314 315 314 316 318 316 314 315 317 316 315 314 314 315 315 315 315 316 316 316 316
311 310 310 310 310 310 311 311 311 312 313 313 313 313 313 313 314 314 314 314 314 313 313 313 313 313 312 313 315 315 315 315 315 316 315 315 315 315 314 313 313 314 315 315 314 313 315 316 315 314 315 315 316 315 315 316 316 316 314 315 317 317 319 317 314 315 315 314 314 315 316 317 317 314 315 317 316 314 314 314 315 315 315 315 316 316 316 316
312 311 311 311 311 310 310 310 310 311 311 311 311 311 311 312 312 312 313 313 312 312 311 312 312 313 313 314 315 316 316 316 316 316 315 315 315 314 314 313 313 314 315 315 314 312 313 315 314 314 314 314 315 315 317 319 318 317 315 318 321 318 318 318 314 313 316 315 312 315 317 316 316 315 316 316 315 314 313 314 315 315 315 316 315 316 316 316
313 313 313 313 314 314 314 314 313 313 312 311 311 311 311 311 311 311 312 312 311 311 310 311 313 313 313 314 315 317 317 317 317 316 316 316 315 314 314 313 314 314 314 314 314 313 312 313 313 313 315 315 315 317 319 320 322 319 316 318 321 319 317 318 317 313 313 315 312 314 317 317 317 315 316 317 315 314 313 313 315 315 316 316 316 316 316 316
313 313 314 314 315 316 317 317 318 318 317 316 315 314 313 313 313 312 312 312 311 311 309 313 317 315 314 315 315 316 316 316 316 316 316 316 315 315 314 314 314 314 314 313 313 312 312 313 314 315 315 315 317 319 319 319 320 319 317 317 318 319 316 318 321 313 311 315 314 313 314 316 317 315 314 316 315 314 313 313 315 316 316 316 317 316 316 316
312 313 313 314 314 315 315 316 317 318 319 320 319 318 317 316 315 313 313 312 311 311 310 313 316 315 315 316 316 316 316 317 316 316 316 315 315 314 314 314 314 314 313 312 312 313 313 313 315 318 317 316 316 317 319 318 316 318 321 320 318 318 317 317 319 315 313 315 315 314 313 313 314 313 312 314 314 313 313 314 315 316 316 316 316 316 316 316
311 311 311 311 312 312 312 312 313 313 315 316 317 317 316 316 315 314 314 313 312 314 314 314 316 316 316 316 316 316 316 316 316 316 315 315 314 314 314 314 314 314 313 315 315 313 313 314 316 319 319 316 315 314 316 316 314 317 320 319 318 317 316 315 316 316 315 316 316 315 314 313 313 313 312 313 313 312 312 313 314 315 316 315 316 315 315 315
310 310 310 310 310 309 309 310 310 310 310 311 312 312 313 315 315 315 314 313 313 314 315 314 315 315 315 316 317 316 316 316 316 316 314 314 314 314 314 313 314 314 314 318 319 313 313 316 318 320 318 316 315 314 314 314 314 316 316 316 316 316 315 315 317 317 315 316 318 316 315 314 314 314 313 312 312 312 311 311 311 313 314 314 315 315 315 315
313 313 312 311 311 310 309 308 308 309 308 309 309 309 312 314 314 314 313 313 313 313 314 313 313 314 314 315 316 316 317 316 316 315 315 314 314 314 313 313 315 316 315 316 318 315 314 316 318 318 316 315 316 316 314 314 314 315 315 315 316 316 316 315 317 317 314 314 316 316 315 314 313 313 313 312 312 312 311 311 311 312 313 314 314 314 315 315
318 318 317 316 316 315 313 311 309 308 308 308 308 309 311 313 312 311 310 311 312 311 312 312 312 312 313 313 315 316 316 316 315 315 315 314 313 313 313 313 316 317 315 314 315 316 316 317 316 315 315 315 316 316 315 315 315 316 316 316 317 317 317 315 316 317 313 314 318 317 314 313 313 313 312 312 312 312 313 313 313 313 313 313 313 314 314 314
321 321 321 320 320 320 318 316 312 309 308 308 309 309 310 311 310 308 309 310 312 311 311 312 311 312 311 312 314 315 315 314 314 314 315 314 312 313 312 312 314 316 316 315 315 315 316 318 315 313 314 316 316 315 315 315 315 316 316 317 317 316 316 315 316 316 313 314 318 317 313 312 312 312 312 311 310 312 313 314 314 314 313 313 314 314 314 314
321 322 322 322 322 322 321 318 314 312 310 307 309 309 309 309 308 308 310 312 313 311 312 312 311 311 312 312 312 314 315 314 314 314 314 314 312 312 312 312 313 314 315 315 314 314 315 317 316 314 315 316 316 315 316 315 314 316 316 316 316 316 317 315 315 317 316 316 316 314 314 313 313 313 314 313 312 312 312 313 313 313 314 314 315 314 315 315
320 321 322 322 323 322 322 320 318 318 313 309 310 310 309 309 308 309 311 314 316 314 313 313 312 311 312 312 312 313 314 313 313 313 313 314 313 313 312 312 312 314 313 313 314 313 313 314 315 317 318 318 317 316 317 317 315 315 316 317 316 316 316 316 317 317 318 321 317 315 316 316 317 317 315 314 314 313 312 312 312 312 313 315 316 316 316 315
320 321 321 322 322 322 322 322 322 323 317 311 310 309 309 309 309 311 311 315 318 315 314 314 314 313 312 312 313 312 312 312 313 313 313 314 314 313 313 313 313 313 313 313 313 313 313 313 315 318 320 320 319 318 320 320 316 314 319 322 319 317 318 318 319 319 323 325 319 317 320 318 317 318 316 317 318 317 316 315 313 311 313 315 316 317 316 315
320 321 321 321 322 321 322 322 323 323 319 314 310 307 309 309 308 310 311 316 319 316 316 315 313 314 313 313 313 312 313 314 313 313 313 313 313 313 313 313 313 312 313 314 314 315 315 314 317 319 318 320 319 317 320 320 316 316 322 327 323 321 322 320 320 322 324 322 317 318 321 318 316 316 317 318 318 319 318 317 315 312 312 315 316 316 316 316
320 321 321 321 322 321 321 322 323 323 321 320 314 307 309 309 308 310 313 318 320 317 317 314 312 314 313 312 312 312 312 312 314 314 313 313 313 313 313 312 313 313 314 315 316 317 318 318 321 321 318 318 318 317 319 319 317 317 320 323 321 320 321 319 318 321 322 319 316 318 318 317 317 315 316 316 315 317 315 315 316 313 312 314 315 316 316 316
321 321 321 321 322 322 321 322 323 323 323 323 317 309 308 309 309 311 315 317 318 316 316 314 313 313 312 312 312 312 311 310 312 313 312 312 313 312 313 312 312 312 312 314 315 316 318 317 317 321 321 318 320 323 323 321 319 317 317 320 323 323 321 318 315 317 320 318 317 319 317 316 318 316 316 315 314 316 314 314 315 313 313 314 314 316 316 316
323 322 321 321 321 321 321 322 322 322 322 323 320 311 308 310 310 313 316 317 317 316 313 312 313 313 312 313 313 312 311 310 310 311 311 311 312 311 311 311 311 314 316 315 315 314 313 311 311 317 318 316 320 319 313 316 317 314 315 319 324 327 324 321 320 317 317 317 318 319 318 316 317 318 317 315 316 317 315 314 314 312 312 313 314 315 316 316
325 325 323 322 322 321 321 322 322 322 322 323 321 311 309 313 313 316 318 316 317 317 313 311 312 312 313 315 316 313 311 310 309 311 312 311 311 310 310 311 312 316 318 316 315 314 312 311 313 316 312 312 318 314 309 312 312 314 320 321 321 326 325 322 321 317 316 317 318 318 318 316 316 317 316 315 316 316 315 316 319 318 313 313 315 315 316 316
326 326 325 324 323 322 322 322 323 322 322 323 319 310 311 315 314 317 319 317 319 319 316 317 315 314 314 314 316 315 313 312 309 311 315 314 314 312 310 313 314 315 318 318 316 316 315 314 314 314 312 312 317 317 316 316 313 315 320 319 318 321 321 319 320 320 319 318 318 316 316 315 315 316 316 316 317 317 315 315 317 318 313 312 316 316 316 316
326 326 325 325 324 323 322 322 323 322 322 324 318 312 316 318 318 320 319 318 322 319 318 321 318 316 316 315 318 318 314 315 312 310 313 314 314 313 312 314 316 316 319 320 318 318 322 319 314 313 313 313 315 316 317 318 316 314 317 318 318 318 317 318 322 324 319 319 320 315 315 316 316 319 318 315 317 316 313 312 313 314 313 314 316 316 316 316
324 324 325 325 324 324 323 322 323 323 323 322 317 315 317 320 323 324 320 319 320 317 319 322 319 316 317 317 321 319 315 317 315 311 313 314 313 316 316 314 314 315 317 318 318 320 322 319 316 316 317 314 313 314 316 319 316 313 315 317 317 321 324 321 323 322 318 323 323 314 317 321 317 319 320 316 314 312 310 312 314 314 314 315 315 315 315 316
323 323 324 324 324 324 323 323 322 322 322 318 315 316 318 321 323 323 323 323 320 317 318 319 318 318 317 319 323 320 315 318 317 313 314 314 315 319 319 315 312 314 316 317 319 320 317 318 318 315 314 313 313 313 315 319 318 314 316 316 313 320 324 318 320 320 316 321 322 315 320 324 316 315 317 315 314 313 311 311 311 311 313 314 313 314 315 316
321 322 323 323 323 324 323 322 321 321 320 315 314 316 318 322 323 321 321 321 317 318 319 317 319 321 320 322 324 321 317 317 318 315 315 314 314 318 318 315 312 312 314 316 320 319 315 319 320 312 311 312 311 312 313 316 318 315 315 315 314 318 319 316 321 322 316 316 318 316 319 320 316 315 316 314 315 315 313 312 310 309 311 312 312 313 314 316
320 321 321 322 322 322 322 321 321 320 318 314 314 317 317 319 321 319 319 316 314 321 322 318 319 321 322 323 324 323 319 318 317 316 317 316 315 316 316 315 313 311 312 314 319 321 317 317 318 315 315 312 306 308 312 311 314 316 317 315 314 317 319 319 323 323 318 317 318 316 316 315 315 317 318 316 315 315 316 316 314 311 309 310 311 311 314 315
319 319 319 320 320 321 322 321 320 319 315 313 314 316 318 318 316 315 316 315 315 320 321 319 318 320 321 319 322 324 320 318 318 317 319 318 317 317 316 316 314 311 311 312 315 321 319 316 318 317 317 313 307 310 314 310 309 314 317 315 316 318 320 320 320 320 318 317 317 316 316 315 314 315 315 316 315 316 317 316 315 313 311 310 311 311 312 314
317 318 318 319 319 320 320 321 320 317 314 314 315 316 318 318 315 313 315 315 315 316 318 319 318 317 318 316 318 321 319 319 319 318 319 318 317 317 316 316 317 313 311 311 313 317 317 316 318 316 313 313 311 312 318 315 310 312 313 314 315 316 319 321 319 318 318 317 316 317 316 315 315 316 315 315 316 317 316 314 314 313 311 310 311 312 312 313
314 316 317 318 319 319 319 319 317 315 314 315 316 316 316 316 315 314 314 315 316 316 317 318 316 315 316 317 316 315 316 319 319 317 318 317 317 318 316 314 316 315 312 311 312 314 315 316 316 314 311 313 313 313 317 318 315 314 314 315 314 312 317 319 316 316 317 315 315 315 315 315 315 317 316 315 317 319 318 318 317 312 310 310 311 311 312 313
313 315 316 317 318 318 318 316 313 312 314 315 315 315 314 314 314 314 314 314 314 314 314 315 315 314 315 316 315 313 314 316 315 314 316 317 316 317 315 312 312 313 313 314 314 314 316 317 316 315 313 313 314 314 315 317 317 316 315 315 314 313 314 316 315 316 316 314 314 315 315 315 314 316 315 313 317 322 319 319 319 313 309 310 311 311 312 313
312 314 315 316 317 318 317 314 311 311 313 314 314 314 313 314 314 314 313 314 314 314 314 314 315 315 314 315 315 314 314 314 313 314 316 317 316 315 313 312 311 311 312 316 318 315 315 317 316 315 316 317 317 314 313 315 315 314 314 315 315 313 313 314 315 315 315 314 315 314 315 315 313 314 315 312 315 317 314 313 316 311 308 311 312 312 313 313
312 314 315 315 316 317 317 315 313 312 311 311 312 312 313 313 314 314 314 314 315 315 316 316 315 316 316 316 315 315 316 314 313 315 316 317 316 314 313 313 314 313 311 315 318 315 314 315 314 314 317 320 320 315 312 312 312 312 314 314 314 313 313 314 313 312 314 314 314 315 315 315 314 315 315 313 312 312 311 310 311 309 309 312 312 312 313 313
310 312 313 314 315 316 316 316 314 313 312 311 311 311 312 312 312 313 314 315 315 316 316 316 316 316 317 316 315 316 317 316 314 314 315 316 316 316 314 314 316 315 313 313 315 313 314 315 314 315 317 318 318 315 313 311 311 313 315 314 314 314 313 313 312 312 313 313 314 315 314 315 315 314 314 313 312 312 312 310 309 308 310 311 311 312 312 312
309 310 311 312 314 315 314 315 315 314 312 312 312 312 311 311 311 312 313 313 314 314 315 315 315 314 315 315 315 315 316 317 316 315 314 315 315 314 313 314 315 315 315 313 312 312 315 315 314 314 316 316 316 315 316 316 313 312 314 313 313 313 313 313 313 313 314 314 314 314 314 314 314 313 313 312 312 312 312 309 308 309 309 310 311 311 311 311
308 309 310 311 313 313 313 314 315 314 313 313 312 312 312 312 312 311 312 312 312 313 313 314 313 313 315 315 315 315 315 315 316 315 314 315 314 312 311 312 312 312 314 313 311 312 313 313 313 314 314 315 315 314 317 318 314 312 314 314 312 313 313 312 313 314 314 314 314 314 314 314 314 313 313 312 312 312 312 311 311 310 309 310 310 310 311 311
306 308 310 312 312 312 312 313 313 314 314 313 313 313 313 312 312 311 311 312 312 312 312 313 313 314 316 315 315 315 315 315 315 314 314 314 313 312 310 310 310 311 312 311 311 312 311 311 313 313 313 314 315 314 315 315 313 313 314 314 313 312 312 312 312 313 313 314 314 314 314 314 314 313 312 313 312 312 312 312 311 310 310 311 310 310 311 310
304 305 307 309 310 311 312 312 311 312 313 313 312 313 313 313 312 312 312 312 312 312 313 313 313 314 315 315 315 315 315 315 315 314 313 313 312 311 311 310 310 310 311 310 310 312 313 313 313 313 312 313 313 313 314 314 314 314 314 314 313 313 313 312 312 312 312 313 313 313 313 314 314 312 312 313 312 312 312 312 311 311 310 310 309 309 309 310
301 302 304 305 305 307 308 307 307 309 310 310 310 311 312 313 312 312 312 312 312 312 313 313 313 314 314 314 315 315 315 316 316 315 314 313 312 312 312 312 311 310 310 310 310 311 312 312 313 313 312 313 312 312 312 313 313 313 313 313 313 313 313 312 312 312 312 312 312 312 313 313 312 312 312 312 312 312 312 311 311 310 309 309 308 308 308 309
300 301 302 302 301 302 303 303 304 306 307 308 309 309 310 311 311 311 311 311 312 312 312 313 313 313 313 312 314 314 314 314 314 314 313 312 312 312 312 313 314 311 309 309 309 309 310 312 313 313 312 312 312 312 312 312 312 313 313 313 312 312 312 312 312 312 312 312 312 312 312 312 311 311 311 311 311 311 311 310 310 309 310 309 308 308 308 309
298 299 300 300 300 300 301 302 303 304 305 307 308 309 309 310 310 309 309 309 310 310 311 311 310 308 307 308 310 311 309 308 307 309 309 308 309 311 311 312 313 312 311 310 310 310 310 311 312 313 313 313 312 312 311 312 312 312 312 312 312 312 312 312 313 312 312 312 312 313 312 312 311 311 311 311 311 311 311 310 309 309 310 309 308 308 309 309
297 298 298 299 299 300 301 301 302 302 303 304 306 306 306 306 306 306 307 308 308 307 307 306 305 304 304 305 306 305 303 302 303 303 304 305 307 309 310 310 310 312 312 311 311 310 309 310 312 313 314 314 314 313 312 312 312 313 313 312 312 312 312 312 313 312 312 312 312 313 313 312 311 311 311 311 310 310 310 309 309 309 309 309 309 309 309 309
Wind_Speed
8 8 8 8 7 8 8 8 9 9 9 10 10 10 10 10 10 10 9 9 9 9 8 8 8 8 8 9 9 10 12 13 13 14 16 12 10 12 10 8 6 5 5 4 4 2 1 1 1 3 4 4 5 6 5 7 8 3 2 2 3 3 4 5 4 4 2 2 3 6 8 6 3 6 8 8 11 14 13 15 16 16 19 21 21 20 18 16
8 8 8 7 7 7 7 7 8 8 9 9 9 10 10 10 10 10 10 10 10 10 10 9 9 9 9 9 10 10 12 13 15 18 18 14 13 13 12 10 9 8 6 5 4 2 1 1 2 3 6 6 5 5 4 6 8 6 3 2 4 5 5 5 5 5 1 1 5 6 8 8 5 6 6 5 8 11 11 15 18 19 21 23 25 24 23 22
8 7 7 7 7 7 7 7 7 7 8 8 9 9 9 10 10 10 11 11 11 11 11 11 10 10 11 10 11 11 12 13 16 18 15 13 15 15 13 12 10 9 7 6 4 3 2 1 2 4 7 9 7 7 6 6 7 8 5 2 7 7 6 11 10 5 3 3 3 2 5 8 8 7 6 5 8 8 10 15 15 20 27 27 27 27 26 26
7 7 7 7 7 7 7 7 6 7 7 8 8 9 9 9 10 10 11 11 11 12 12 12 11 11 11 11 11 11 12 13 13 11 7 6 8 12 13 12 11 10 9 8 5 4 2 1 3 4 7 9 9 9 8 9 8 6 7 5 7 5 4 13 14 9 7 5 4 3 2 6 9 9 9 7 5 7 15 22 21 23 28 28 30 30 29 29
8 7 7 7 7 7 7 7 7 7 7 8 8 9 9 9 10 10 11 11 12 12 12 12 12 12 12 11 11 10 9 7 4 1 4 7 8 6 9 11 12 11 11 10 7 5 4 3 4 4 5 6 6 5 7 15 13 4 8 12 14 9 5 14 16 12 10 7 6 5 3 7 8 9 15 11 7 13 17 18 19 21 22 24 28 30 31 31
9 8 8 8 8 8 8 8 8 8 8 8 8 9 10 10 10 10 11 12 12 12 13 13 13 13 13 12 11 10 5 3 4 3 6 12 14 11 7 10 12 13 13 12 10 8 6 4 4 5 4 4 5 6 9 17 17 7 8 12 17 16 10 16 18 15 14 10 7 6 6 9 7 9 17 18 21 29 26 16 13 13 14 17 23 28 32 33
10 10 10 9 9 9 9 9 9 9 9 8 9 9 10 11 11 11 12 12 12 13 13 13 14 14 14 13 12 10 8 10 13 13 16 18 16 14 9 9 11 14 14 14 13 10 8 5 6 8 5 5 6 8 10 12 14 11 7 7 14 18 16 20 20 17 16 12 12 11 9 9 9 10 12 21 33 38 32 26 22 20 20 20 20 25 29 32
12 12 12 12 11 11 11 11 11 10 10 10 10 10 10 11 11 12 12 13 13 13 13 14 13 13 14 14 12 9 11 13 13 12 15 15 14 14 11 10 12 14 15 14 14 12 11 9 10 10 5 5 5 6 7 6 6 9 8 8 12 15 17 19 18 19 18 16 17 13 12 15 17 13 13 28 40 39 34 32 31 27 27 28 27 27 27 30
14 14 13 14 14 13 13 13 13 13 13 12 12 12 11 12 12 13 13 14 14 14 15 14 14 14 13 13 11 8 12 14 11 10 11 11 13 13 12 12 13 15 15 15 15 13 14 11 11 9 5 6 6 7 8 4 3 7 9 10 11 14 17 19 21 24 21 19 16 10 14 19 19 13 17 38 44 38 35 33 32 29 28 30 32 33 31 32
15 15 15 15 15 15 15 15 15 15 15 15 14 14 13 14 14 14 14 15 15 16 16 15 15 14 13 13 7 6 13 15 13 13 12 11 12 12 12 12 13 16 16 15 15 15 16 13 11 10 8 8 6 8 7 4 4 6 9 12 15 17 20 21 22 27 24 20 18 13 12 16 13 5 13 39 37 24 25 25 26 26 29 32 33 34 34 35
18 17 17 17 17 17 17 17 17 18 17 17 17 16 16 16 16 17 16 16 17 17 17 16 16 15 15 14 9 10 17 19 17 17 14 14 15 14 13 12 13 16 17 17 16 16 16 14 12 10 8 6 5 8 9 8 7 8 10 13 18 16 20 24 21 26 20 14 21 17 10 12 6 5 19 43 34 17 19 21 21 21 26 29 31 35 35 37
21 21 20 20 20 20 20 20 20 20 20 20 19 19 18 18 18 19 19 18 18 18 18 17 16 15 14 15 18 19 22 21 18 17 16 16 17 17 16 14 14 15 17 18 17 16 15 15 14 12 9 5 3 4 6 8 7 10 7 7 15 9 13 24 21 23 15 7 15 13 4 11 6 13 34 46 37 27 26 27 27 25 26 28 29 33 35 37
23 22 22 23 22 23 23 23 23 23 23 22 22 22 21 21 20 21 21 20 20 20 19 18 17 16 12 16 24 24 21 20 19 18 18 18 19 20 18 17 15 15 17 17 17 17 16 15 15 15 14 9 4 4 7 9 9 10 3 2 9 7 8 19 15 15 12 7 13 14 1 11 10 21 38 40 35 32 30 31 33 31 31 31 31 32 34 36
22 22 22 22 22 23 24 24 24 25 25 24 24 23 23 23 22 23 22 22 22 21 21 18 16 14 12 18 26 24 22 22 21 20 19 19 20 20 19 17 16 16 16 16 17 16 16 14 14 14 14 13 10 9 8 8 6 4 2 2 4 3 7 12 6 5 4 5 17 16 2 11 12 20 33 34 30 27 28 33 34 33 34 34 34 35 36 36
22 22 22 22 22 23 24 23 24 25 25 25 25 24 23 23 23 23 22 22 22 22 21 19 16 12 12 19 25 22 21 22 21 20 19 19 20 20 19 17 16 16 15 16 16 16 16 13 12 11 9 11 10 6 4 4 3 1 1 5 2 4 7 11 7 7 6 5 16 14 3 12 14 19 31 32 27 25 27 32 33 32 34 34 36 37 37 38
22 22 22 22 23 24 24 24 24 25 26 26 26 25 24 24 24 23 22 22 21 20 19 15 14 11 8 15 20 19 20 21 20 20 19 18 18 18 17 15 15 15 15 15 15 15 15 12 11 9 6 6 4 2 3 4 5 2 4 6 5 5 5 7 7 6 10 6 9 10 5 9 10 13 23 23 19 22 24 28 31 32 33 34 36 37 38 39
22 22 22 22 23 24 24 25 25 25 26 26 26 25 24 24 24 24 22 21 20 18 16 11 8 8 10 14 19 22 25 23 21 20 18 17 17 17 16 15 14 14 13 12 13 12 11 10 8 5 5 4 3 5 3 3 7 4 3 5 6 7 5 5 7 1 8 8 7 10 7 11 13 11 18 18 14 15 18 24 29 30 32 33 35 37 39 41
21 21 22 22 22 23 23 24 25 25 26 26 26 26 24 24 24 24 23 21 17 12 10 10 7 2 10 16 18 21 21 18 16 15 15 15 15 14 13 13 11 10 8 8 10 10 10 8 6 2 2 3 4 5 4 8 8 4 4 4 5 7 6 9 8 1 7 6 7 8 8 15 19 15 22 29 25 18 17 22 26 29 32 34 36 39 41 42
19 19 20 21 21 22 22 22 23 25 26 26 26 25 24 23 20 20 18 15 12 7 6 11 14 5 8 12 13 14 15 13 11 11 14 14 13 13 13 12 10 10 7 4 5 10 11 4 4 3 4 8 8 8 11 13 8 6 7 6 6 7 7 11 11 5 8 5 6 10 11 15 19 18 20 31 33 26 23 23 25 30 33 35 38 42 42 42
16 16 17 18 18 19 19 20 20 21 23 23 24 22 17 13 9 9 9 13 16 14 14 15 19 16 13 12 13 14 15 14 14 15 15 14 13 12 15 12 8 8 6 5 4 9 13 6 3 7 11 12 9 10 14 13 9 9 9 8 9 8 10 13 11 7 8 6 7 12 15 15 19 19 17 24 25 20 20 21 24 30 33 36 40 43 43 44
13 14 14 15 15 16 16 17 17 17 18 18 19 15 7 5 4 6 9 14 21 23 25 23 21 24 22 18 17 17 17 16 18 20 16 14 14 11 14 13 6 5 7 6 3 4 9 7 7 13 15 11 8 10 13 12 10 11 9 9 10 7 11 14 10 7 6 5 8 11 14 15 17 18 16 17 14 13 20 19 22 29 32 36 40 43 45 47
13 13 13 13 13 15 15 15 15 15 14 14 14 9 4 4 7 10 10 12 22 26 27 26 26 30 29 26 25 22 19 16 19 22 19 17 18 13 12 12 6 4 5 5 3 3 5 6 11 16 13 8 7 8 9 10 10 9 8 8 8 6 10 12 8 7 4 5 8 9 11 13 15 16 15 13 12 17 28 28 29 33 30 34 40 43 45 45
12 13 14 13 13 14 15 15 14 13 13 11 9 7 5 6 8 11 10 8 17 24 26 29 30 32 31 29 30 27 23 21 20 23 24 22 22 18 14 11 7 4 5 7 8 6 5 7 13 16 10 9 12 10 8 8 8 8 9 8 9 7 8 10 6 3 3 4 6 7 9 9 10 14 13 17 21 24 32 35 37 38 33 37 45 45 45 44
12 12 13 14 13 14 16 15 11 12 14 12 9 7 6 6 6 9 10 7 9 14 23 29 29 32 34 30 29 29 28 27 21 19 26 28 23 16 13 11 7 5 7 12 14 13 11 8 11 13 11 12 14 11 8 6 8 11 11 9 11 10 11 12 7 3 3 4 4 5 9 8 9 15 15 15 20 21 28 31 33 39 39 41 48 46 44 46
13 13 14 14 14 14 16 13 10 14 15 11 9 8 7 6 5 7 9 6 5 7 15 19 19 25 29 27 27 26 21 21 20 19 24 29 25 13 7 10 9 7 12 13 12 13 12 11 9 8 9 12 12 10 8 7 9 12 10 12 15 14 13 13 8 6 5 6 3 1 8 9 7 14 14 9 9 11 17 19 23 34 38 38 43 43 42 42
14 14 15 16 15 15 14 12 12 15 13 10 11 9 7 5 4 8 7 3 4 4 4 7 9 10 13 18 24 19 8 10 17 22 20 23 28 18 5 7 8 7 9 8 6 5 7 11 11 10 10 11 9 8 7 11 9 11 7 11 14 12 10 10 6 3 4 6 4 3 2 9 5 7 10 7 7 10 11 11 16 26 31 33 39 40 39 38
16 16 15 16 16 15 14 12 12 13 11 11 13 9 6 3 3 7 5 3 5 3 5 6 6 5 5 10 19 15 3 4 8 15 19 20 26 22 10 6 5 5 6 4 4 4 4 7 9 12 12 8 8 9 9 11 8 8 3 8 9 8 8 7 4 5 4 4 5 2 3 7 11 6 10 11 11 11 11 9 12 18 27 34 37 38 38 37
18 17 17 17 18 16 15 14 12 10 10 12 13 9 4 2 3 4 2 4 4 5 5 4 6 5 5 10 20 16 2 2 3 7 18 21 20 16 11 9 5 3 4 5 6 5 2 5 8 11 9 7 8 8 8 11 7 5 2 5 6 5 5 2 3 4 1 4 6 4 6 4 13 8 9 11 11 10 12 13 12 15 25 34 36 38 36 34
20 19 19 18 19 19 16 16 13 10 9 10 12 8 2 0 3 4 2 4 3 3 3 5 6 4 6 10 15 13 3 1 1 4 12 16 17 10 4 5 4 3 4 5 8 5 0 3 5 7 6 7 6 3 6 10 8 4 5 3 4 3 2 4 1 1 3 5 7 5 7 4 13 8 6 6 7 9 11 12 13 16 25 33 34 35 33 30
21 21 21 20 21 21 18 17 15 12 9 8 10 6 1 1 2 3 3 4 1 0 2 4 4 4 7 6 5 10 5 0 2 4 6 8 12 7 0 1 2 2 4 5 7 8 4 1 1 4 5 5 4 3 1 4 4 2 6 4 6 5 4 4 1 4 3 8 6 9 11 8 9 5 6 6 6 10 10 8 10 12 19 29 31 30 28 27
21 20 21 24 24 21 20 20 18 14 10 9 10 4 2 1 4 2 7 3 1 1 2 2 2 4 7 5 2 5 4 1 2 6 4 2 4 4 0 1 1 2 3 5 7 9 6 2 1 3 4 5 6 3 3 3 2 4 4 4 4 5 4 5 4 5 2 10 5 12 14 12 10 6 3 4 5 9 10 8 10 10 15 26 30 26 24 24
24 22 21 24 24 23 23 23 20 17 14 12 8 1 3 1 1 6 6 3 1 3 2 3 3 3 5 3 1 3 3 2 4 6 5 3 3 3 3 4 4 2 3 5 5 5 6 8 7 2 3 7 5 2 3 6 3 4 4 5 1 4 3 3 4 1 4 8 5 10 9 8 13 7 2 6 7 7 8 9 13 12 15 25 28 24 22 22
27 26 24 23 22 24 26 25 23 21 19 15 7 5 5 1 5 7 4 1 3 3 2 3 4 4 4 1 2 4 3 3 5 5 4 4 3 4 4 5 5 2 4 4 2 2 4 7 6 3 3 10 10 5 4 3 3 6 6 6 5 3 1 2 4 3 5 7 5 5 6 5 9 4 8 13 12 12 12 15 20 20 21 26 25 23 22 21
27 27 27 25 24 24 24 26 27 24 23 17 8 7 5 4 5 2 3 5 5 3 1 1 4 4 3 2 5 5 4 4 5 6 3 4 2 4 4 7 8 4 1 2 2 2 4 9 6 8 4 10 14 13 11 5 4 7 5 6 5 5 5 4 5 6 5 6 5 3 5 4 4 2 9 12 12 12 16 24 27 26 28 26 22 22 20 19
24 25 26 26 27 26 24 26 27 26 25 16 8 5 3 6 5 1 2 5 5 4 5 2 4 4 4 4 4 5 6 6 4 6 4 5 4 5 4 6 10 7 3 3 3 4 5 11 7 7 3 11 13 12 10 6 1 4 4 4 4 5 6 5 5 6 2 3 6 3 4 6 4 6 8 7 9 9 14 21 20 22 28 27 24 23 20 19
20 21 23 25 28 26 26 25 23 25 24 15 8 1 7 6 4 3 3 3 1 2 5 4 2 4 4 3 3 5 6 5 2 4 3 4 5 5 4 4 10 12 9 6 3 3 5 7 3 2 2 5 6 4 6 6 3 2 4 4 4 3 6 5 6 3 2 4 7 4 5 6 5 7 7 6 8 7 7 10 10 17 26 27 28 26 21 20
19 20 21 25 25 22 23 22 21 25 24 15 5 5 6 4 3 4 3 2 1 1 3 2 2 3 3 3 3 4 4 4 3 4 2 3 3 6 6 5 9 15 16 13 5 4 6 6 4 5 2 4 2 2 1 2 5 6 4 6 2 3 2 3 2 3 1 6 7 6 10 8 6 8 4 4 2 5 7 8 9 15 21 24 28 26 20 20
19 20 23 25 22 18 18 18 20 24 20 10 6 9 5 3 4 4 5 5 5 3 1 2 4 2 3 3 3 3 3 3 4 4 3 3 4 6 7 5 8 16 23 21 7 3 5 6 6 5 5 3 1 2 2 2 4 6 3 2 3 1 2 2 3 3 5 7 7 10 13 9 7 9 5 3 5 8 11 11 11 13 14 19 26 24 20 21
16 16 18 17 11 8 9 14 21 25 15 5 7 8 4 4 5 6 7 5 4 4 3 4 5 3 4 4 4 1 3 4 4 3 4 4 5 5 7 7 7 13 23 21 9 4 4 5 6 2 2 2 2 2 5 2 1 1 1 2 1 3 4 4 4 3 5 9 8 10 11 10 9 7 4 7 9 9 9 9 9 11 13 20 27 28 26 24
14 9 9 9 5 4 9 16 23 20 9 3 8 6 2 2 3 6 8 5 1 2 4 3 3 4 3 4 4 2 2 4 2 2 3 4 5 3 2 2 2 4 12 14 10 7 3 5 8 2 2 1 2 4 7 7 5 3 2 4 3 2 2 1 2 2 4 7 7 8 9 10 9 3 3 6 7 8 9 9 9 11 16 25 29 30 28 24
11 7 7 10 8 11 17 19 15 9 3 4 5 4 3 4 4 5 8 7 4 3 1 0 3 3 2 3 4 2 2 3 3 4 3 3 5 4 3 5 8 8 7 3 5 5 1 4 7 1 0 5 5 5 9 11 9 7 7 7 6 6 3 3 6 4 4 5 5 7 8 10 10 2 3 2 4 6 8 9 9 12 20 28 27 23 22 21
10 6 7 11 11 17 21 13 6 5 4 4 5 4 5 6 7 8 11 11 8 5 2 1 3 3 2 5 5 3 3 3 3 3 4 4 6 6 5 9 10 9 7 4 4 3 1 1 5 4 4 7 6 4 7 10 8 5 4 5 4 4 4 6 8 5 4 5 4 7 9 9 12 9 4 5 4 5 9 9 8 13 22 26 21 18 17 17
11 9 8 9 12 21 20 6 4 7 3 4 6 6 6 5 4 5 8 8 7 6 5 4 6 8 7 7 6 5 4 4 6 7 8 7 9 15 22 28 23 9 5 4 3 5 4 0 3 5 4 5 5 2 2 3 3 2 2 4 4 4 6 7 7 5 6 7 5 8 10 7 12 14 10 11 10 6 9 13 13 15 19 18 13 13 15 17
10 12 12 11 14 21 17 4 3 6 4 5 5 6 8 6 5 8 8 6 7 5 4 5 8 10 9 7 7 8 7 6 8 11 10 7 9 20 29 34 30 10 1 3 1 4 4 1 2 2 3 5 5 4 4 2 2 2 3 5 6 8 9 7 5 4 6 10 10 11 9 7 12 16 13 14 16 9 9 14 16 14 12 10 10 14 18 22
5 9 13 16 22 25 17 9 8 6 6 10 9 9 10 6 9 18 17 12 12 9 4 4 5 7 7 6 6 9 11 9 8 7 7 6 6 12 19 26 25 12 10 15 7 3 1 2 1 1 4 6 6 6 6 3 1 1 3 8 12 14 15 11 7 6 9 12 13 12 11 11 15 19 19 21 21 16 14 17 18 17 17 18 21 24 27 28
3 4 7 12 24 28 22 19 18 9 5 9 8 8 12 10 10 20 21 15 16 17 11 6 4 3 4 7 8 9 11 12 11 7 5 6 4 5 14 22 20 18 25 25 14 7 2 4 7 10 10 10 10 11 9 4 4 6 8 12 14 15 17 13 8 10 11 11 12 13 15 17 17 18 22 24 24 23 22 19 18 20 26 30 32 32 31 32
3 3 3 4 12 19 18 18 17 10 7 10 5 4 12 13 8 11 15 14 16 17 12 8 9 8 6 9 11 11 12 13 13 11 9 9 7 6 12 15 15 20 26 20 16 10 2 5 12 17 19 18 18 20 19 15 14 16 15 16 15 13 14 13 12 14 13 11 13 15 18 20 18 17 23 26 27 27 24 18 17 20 26 31 32 30 29 32
5 5 5 2 2 6 8 9 9 7 7 10 6 5 11 14 10 7 9 11 14 14 8 6 12 15 14 14 12 9 10 10 11 13 12 12 10 9 10 11 14 22 20 10 12 10 3 7 13 16 21 23 23 25 25 22 21 20 18 19 20 19 17 16 17 19 16 15 15 15 18 20 17 18 22 25 26 26 24 25 27 27 27 27 25 25 28 33
6 6 8 6 3 5 7 6 5 5 4 5 4 4 7 10 10 7 3 4 6 9 9 10 12 16 19 20 16 12 12 12 13 13 11 11 12 10 9 9 14 20 16 7 7 7 4 7 11 16 19 20 22 24 25 25 23 21 21 22 22 22 22 21 22 21 21 21 20 19 22 22 18 17 20 24 28 28 27 33 35 33 33 33 27 23 27 35
7 5 6 6 4 8 13 11 6 5 4 4 3 4 5 7 9 8 3 3 4 2 7 12 12 11 12 14 14 15 14 13 14 11 7 6 7 6 6 7 8 9 8 6 5 6 7 8 11 13 14 14 18 21 22 24 24 24 25 23 22 24 24 24 23 20 19 21 23 24 24 21 17 19 22 28 33 30 26 29 33 38 43 39 27 24 29 36
9 7 6 6 3 6 9 7 3 3 3 5 4 4 4 6 7 7 6 8 11 8 6 8 10 9 9 10 11 11 11 12 13 14 13 12 11 8 7 6 6 4 3 5 4 4 6 7 7 8 9 9 14 19 22 24 25 25 25 23 24 24 23 22 21 19 19 21 23 23 20 15 17 21 23 25 28 28 24 23 29 39 46 38 27 27 35 38
9 9 7 5 4 6 7 3 1 3 4 6 5 3 4 5 7 7 6 7 8 9 9 9 9 9 9 10 9 12 18 20 19 22 24 24 23 20 17 15 13 9 5 4 3 4 6 6 6 7 9 8 13 20 22 20 18 16 17 24 29 27 24 22 20 21 22 21 18 17 16 17 19 20 19 21 23 23 23 25 30 37 40 37 31 32 36 39
Wind_Direction
339 343 346 348 353 357 1 4 7 9 11 12 13 15 16 18 19 17 11 4 356 347 336 325 319 318 318 314 307 300 295 288 286 280 272 272 273 275 276 282 292 297 301 299 316 355 164 50 357 240 230 246 257 257 246 230 220 204 115 157 242 229 217 208 209 252 202 222 236 207 202 190 240 239 228 249 244 241 240 234 232 229 232 241 249 253 253 245
331 335 337 342 344 347 354 357 1 4 7 8 10 11 10 13 13 15 13 9 5 358 351 339 326 317 312 311 311 307 299 293 287 276 272 273 268 266 267 272 280 274 271 276 287 312 296 15 356 269 235 238 254 247 232 216 201 193 160 174 233 214 224 251 272 275 293 241 208 202 212 207 240 249 225 242 249 239 240 243 237 236 238 241 246 249 251 249
322 325 328 333 334 339 344 347 355 356 360 1 2 5 6 7 6 10 10 7 6 2 358 351 343 331 320 311 310 310 304 299 290 284 284 279 266 260 259 259 264 263 256 264 280 302 317 324 298 272 234 238 248 230 214 200 201 209 197 222 245 225 253 283 299 304 303 277 222 215 221 215 241 245 214 228 260 250 231 238 231 232 239 239 243 246 247 248
311 315 316 321 322 327 330 335 343 344 351 351 353 355 356 358 358 360 1 3 2 359 358 354 351 343 334 322 313 309 311 311 297 298 320 316 280 258 252 251 253 253 250 257 272 282 300 270 258 262 234 240 245 231 217 207 209 199 184 205 240 232 281 277 291 303 287 287 275 289 270 249 255 240 227 228 269 268 239 241 239 241 249 245 241 244 246 247
301 303 305 308 309 313 316 322 326 332 338 338 342 342 343 347 347 348 350 352 352 352 351 350 349 344 339 331 318 307 317 331 307 3 31 3 349 298 255 246 246 246 247 249 256 258 264 257 239 250 243 249 250 228 225 219 213 206 215 223 238 247 278 275 286 293 280 285 279 279 284 274 267 239 237 225 224 255 252 255 254 255 262 256 249 248 245 245
293 294 295 296 297 300 302 307 311 317 322 326 331 330 332 332 334 338 337 340 341 342 341 342 343 341 337 331 323 308 293 283 276 284 311 318 327 323 289 250 242 242 246 244 248 249 255 259 232 240 233 244 244 223 248 237 217 224 251 237 246 249 254 271 280 286 280 274 266 272 269 268 268 257 250 231 235 255 261 264 263 263 267 264 258 250 245 245
288 289 290 290 289 291 292 296 298 301 305 309 313 315 319 319 322 325 325 329 329 332 333 333 336 334 333 328 323 307 262 263 285 288 292 301 308 310 299 262 243 240 244 243 245 242 244 239 232 246 235 242 247 232 264 260 217 218 263 263 261 259 260 270 280 286 279 267 268 273 269 264 251 261 265 245 251 261 264 263 261 262 266 266 261 252 248 249
286 287 287 288 288 288 289 290 291 293 295 296 299 300 303 305 308 311 314 318 318 323 323 325 329 327 328 323 318 299 266 282 303 296 291 298 299 300 294 269 247 242 243 244 246 242 241 236 240 250 244 243 248 250 285 303 221 216 249 266 269 271 270 275 284 287 281 274 274 269 258 255 250 261 275 260 262 266 264 266 267 262 261 259 259 257 253 252
288 287 287 288 287 288 288 290 290 290 291 291 292 292 294 296 297 300 302 306 309 312 314 318 321 320 321 313 307 292 283 301 319 310 302 300 294 294 288 270 252 245 243 244 245 239 236 234 238 239 243 260 263 279 294 313 244 218 241 266 281 282 283 284 283 282 280 276 267 251 254 256 255 268 277 266 266 269 266 267 268 264 257 253 253 254 254 254
289 288 289 289 289 290 290 290 290 290 290 291 290 290 292 293 294 294 295 299 301 303 307 310 314 315 312 301 286 271 292 306 312 308 306 296 290 288 285 273 256 250 246 246 243 237 237 235 235 235 256 273 265 274 279 262 246 256 277 291 288 287 291 288 281 278 276 274 258 229 250 262 254 243 268 269 270 272 268 265 266 261 255 253 251 252 253 254
289 289 290 290 290 292 291 291 291 291 290 290 290 290 291 292 293 293 292 295 296 298 300 302 308 307 305 294 253 251 292 301 302 301 295 289 286 281 281 274 260 252 248 248 244 240 241 236 238 243 258 267 265 280 277 258 255 281 305 309 290 292 297 285 276 275 270 271 252 221 245 275 253 190 246 264 268 267 264 265 267 258 254 253 250 253 254 255
291 292 293 292 292 293 291 292 291 290 290 289 290 290 291 291 291 291 292 293 294 294 294 297 300 299 300 283 261 272 294 296 295 292 287 287 282 276 276 272 264 255 248 248 243 238 234 234 238 239 246 252 282 309 286 271 281 294 310 311 290 305 299 278 271 267 251 250 238 195 264 282 228 223 246 261 266 263 263 264 264 259 256 254 251 252 253 257
294 295 296 296 296 296 294 294 293 292 291 291 290 290 290 289 289 290 289 290 291 291 291 291 291 292 286 271 275 286 292 290 287 284 282 282 277 275 275 270 265 256 249 247 241 236 232 233 238 241 247 250 262 271 276 294 301 296 290 217 285 322 296 272 269 255 236 225 197 156 233 270 237 239 250 265 268 262 261 259 260 257 256 255 253 252 253 257
295 297 297 297 299 297 296 296 296 295 294 294 293 293 293 292 291 289 288 289 289 289 288 286 283 281 264 268 284 288 285 283 280 277 278 275 272 272 272 269 263 254 249 246 240 237 233 232 238 246 248 244 253 268 286 310 294 279 299 220 259 296 277 271 266 194 200 200 173 154 227 258 256 255 257 267 266 258 253 254 258 255 254 254 252 253 254 257
294 296 296 297 298 296 296 297 297 296 296 295 295 296 296 296 294 291 291 289 288 288 287 282 277 268 257 271 282 283 280 276 273 274 272 269 269 269 268 264 257 250 246 244 240 238 237 233 232 238 245 247 254 271 312 331 294 205 241 280 258 213 261 283 274 189 191 196 167 155 216 255 262 264 265 270 265 254 245 250 256 253 254 253 252 252 253 258
292 293 293 295 295 295 296 297 297 296 296 295 295 296 297 298 296 294 293 290 288 287 282 277 270 257 255 277 279 275 274 269 270 272 266 266 266 264 262 257 249 244 240 239 237 236 235 229 228 231 234 247 221 151 20 348 306 288 198 251 260 230 265 296 291 211 181 164 174 189 213 255 265 263 266 269 263 252 239 246 252 252 256 254 253 253 252 257
293 293 294 294 293 294 295 296 296 296 295 295 294 295 296 296 295 294 293 289 284 278 270 259 256 250 247 267 273 270 270 268 268 266 263 263 259 258 257 248 241 238 235 232 232 227 218 210 205 227 235 230 160 119 55 299 269 282 206 237 252 243 262 273 296 283 157 148 198 222 226 250 259 265 269 264 262 258 237 241 248 251 256 257 258 257 255 257
297 297 297 297 296 296 297 297 297 295 295 294 295 296 296 296 295 293 288 282 274 266 258 221 189 232 249 252 263 268 273 271 263 259 257 251 247 251 249 242 236 226 218 221 228 207 195 202 179 187 270 221 184 142 173 234 238 234 206 228 254 250 256 256 270 215 156 168 207 219 233 250 258 265 267 264 264 266 247 243 249 253 256 259 260 259 259 258
304 303 302 302 302 302 302 301 300 297 296 294 295 296 296 297 296 290 282 267 240 227 250 206 186 202 256 252 256 262 269 263 249 242 240 236 238 242 232 227 218 202 188 190 224 191 179 186 139 159 245 225 208 182 204 228 230 229 230 239 252 252 258 257 263 220 174 199 218 219 233 242 254 258 258 261 263 264 260 252 250 252 255 258 259 259 259 257
316 314 313 313 313 313 313 310 307 306 303 300 298 298 300 305 302 292 275 249 238 247 263 236 214 230 252 259 257 255 255 251 244 239 238 236 234 229 216 207 194 196 193 161 187 189 179 181 165 192 225 226 208 198 217 234 242 252 257 261 257 255 264 260 265 246 185 199 227 224 236 241 249 255 252 257 262 263 261 253 246 247 250 254 256 259 259 260
329 328 326 328 329 328 327 323 322 321 318 312 311 312 318 327 309 292 287 271 266 265 265 260 247 247 256 258 255 256 254 249 247 240 238 234 222 214 205 192 169 201 210 184 196 200 178 191 211 213 227 230 203 200 219 233 239 250 253 260 261 248 262 260 259 257 196 200 248 236 243 249 249 256 256 253 255 256 254 251 248 248 250 254 257 259 261 264
336 335 336 339 342 341 339 337 336 334 332 325 322 328 318 295 280 280 293 288 278 271 266 266 259 253 255 254 251 254 248 243 242 233 229 223 211 205 193 180 184 199 179 184 242 255 206 223 225 221 232 243 232 215 215 228 233 244 245 256 263 248 268 267 250 256 208 191 252 250 247 253 253 257 258 250 240 245 251 252 253 254 254 257 260 261 263 265
335 337 339 342 349 348 346 345 344 346 346 339 334 341 318 295 285 288 297 285 280 277 267 262 256 250 247 243 243 241 232 234 236 228 228 222 204 200 192 177 192 180 151 190 211 224 227 231 226 222 226 236 246 238 223 244 247 240 239 249 259 248 263 267 249 252 221 206 252 266 259 255 260 265 261 249 243 245 252 253 256 258 256 258 261 262 263 265
327 331 333 337 347 350 350 351 352 353 350 345 344 344 333 317 296 302 304 278 274 276 268 262 256 249 243 239 238 232 229 235 237 229 229 219 197 193 203 191 178 178 201 206 209 225 237 227 210 208 212 223 242 243 221 240 257 244 234 233 250 248 243 252 272 321 286 278 286 289 286 268 236 249 256 249 244 245 250 253 256 258 256 258 262 262 262 263
315 318 322 326 333 343 348 350 353 352 348 346 343 335 333 326 299 316 320 292 269 267 267 259 248 246 243 239 233 227 233 242 240 237 232 219 203 192 201 191 181 210 221 216 220 237 245 235 207 194 211 219 232 242 208 197 249 258 231 214 236 246 245 255 289 334 316 295 283 220 283 277 205 225 248 251 241 240 243 243 248 253 254 255 259 262 263 263
305 307 311 313 318 331 339 345 350 349 348 344 341 335 325 317 302 321 333 312 272 248 224 216 217 233 232 228 220 215 250 262 241 238 231 223 215 207 193 181 193 225 213 210 238 245 237 228 208 202 216 214 220 244 211 190 234 269 228 199 224 241 254 264 278 299 265 265 268 132 251 282 253 215 234 233 228 237 236 232 239 246 249 247 250 257 263 265
296 298 303 302 308 319 325 334 342 348 353 346 342 334 317 324 333 332 346 320 276 190 155 181 183 187 196 203 195 187 249 257 221 225 213 211 212 207 210 199 194 221 174 149 263 245 206 207 201 211 220 210 215 240 216 184 213 267 223 182 205 227 248 251 224 222 234 274 281 164 132 282 281 236 206 206 210 229 238 238 242 242 242 243 245 252 259 263
287 291 294 295 299 305 313 318 324 347 354 346 346 332 314 358 348 1 43 290 273 131 136 187 171 189 195 177 182 185 205 147 157 205 196 195 197 196 220 220 188 210 160 156 236 248 167 186 206 206 206 207 216 228 194 169 204 253 164 160 171 189 217 165 165 227 295 337 280 207 135 263 280 250 192 202 206 221 236 234 238 238 239 243 245 249 255 261
279 283 286 289 292 294 302 305 305 326 336 342 349 328 299 359 334 34 95 256 264 117 141 177 170 197 175 160 192 210 227 94 168 191 180 189 193 185 223 226 198 268 256 214 234 261 244 191 202 173 179 217 214 201 165 171 215 226 118 98 71 71 61 79 159 198 43 306 259 192 147 225 278 261 173 189 205 215 233 231 233 235 237 243 244 247 253 257
273 276 278 278 282 286 293 292 291 306 315 330 338 322 256 128 48 59 231 250 293 109 121 156 187 174 144 137 220 231 225 309 58 139 160 186 198 197 82 118 144 256 281 282 260 259 259 73 85 172 193 202 143 91 105 167 206 124 94 54 28 12 25 54 355 77 58 276 238 175 175 192 269 278 149 175 198 199 212 223 239 243 240 246 249 249 253 253
260 263 267 267 272 278 280 279 283 293 295 311 326 326 148 102 78 147 232 252 356 246 102 157 216 134 152 164 226 218 207 248 123 144 172 183 190 204 173 147 110 64 319 297 276 267 259 228 236 220 186 129 96 79 355 15 61 90 92 76 23 327 10 30 352 61 208 263 215 180 183 183 233 264 154 226 241 201 198 201 226 239 239 244 247 250 254 253
260 257 260 264 267 267 266 271 279 283 285 298 305 194 132 66 200 219 238 10 2 219 163 194 197 164 198 223 292 188 167 202 178 166 182 166 167 194 205 207 170 94 286 253 264 289 266 233 215 198 182 169 140 90 345 348 29 104 107 105 69 296 341 356 310 81 223 254 224 189 180 198 239 250 217 271 283 229 209 206 214 221 231 237 241 252 258 252
266 263 262 263 264 262 262 267 271 272 278 278 248 149 103 129 230 231 223 293 249 210 163 187 183 172 164 139 255 204 178 222 187 177 187 156 181 233 255 241 193 202 247 220 268 308 286 269 202 148 247 192 164 169 234 274 182 161 147 145 170 215 236 266 260 259 256 262 252 186 165 239 277 275 210 227 238 221 209 214 219 222 227 227 235 255 261 247
262 262 262 262 261 261 264 267 265 266 268 255 202 117 102 202 243 268 164 213 246 250 245 161 157 178 167 190 225 181 182 239 175 164 187 147 173 241 247 234 214 219 208 190 275 187 252 287 195 159 218 183 174 203 208 166 156 184 157 148 180 181 175 207 235 249 267 287 279 181 161 235 294 280 212 217 236 230 215 219 223 228 231 226 233 254 254 236
261 260 260 263 260 256 260 262 260 261 253 222 153 101 172 211 246 290 210 235 267 282 284 349 119 179 240 250 245 204 211 245 165 152 187 179 191 215 204 205 200 188 148 197 253 173 222 272 223 168 150 158 178 215 192 126 107 222 125 122 219 203 188 222 256 239 217 321 288 213 201 239 250 256 241 235 257 250 227 226 226 231 234 231 236 243 236 222
269 264 261 262 260 258 259 258 260 259 237 186 125 193 212 215 216 182 205 220 221 318 318 330 135 187 255 275 272 240 221 240 191 158 207 213 211 214 199 193 192 188 184 194 226 199 227 277 245 157 53 156 179 212 171 158 203 199 127 183 219 168 171 223 283 294 126 263 271 231 235 277 313 282 256 227 242 256 259 251 239 235 235 234 237 235 222 213
274 273 269 265 265 267 263 257 258 248 220 176 153 225 213 242 220 196 268 296 299 25 42 338 230 200 235 248 259 240 217 234 202 167 213 228 228 216 207 217 195 189 201 208 222 239 230 268 252 178 215 251 196 104 249 203 144 129 179 214 196 63 121 165 243 319 284 249 264 261 260 280 301 282 300 44 300 264 261 250 237 237 234 234 240 236 221 216
274 278 278 275 276 274 261 254 246 227 201 169 217 230 214 229 196 199 284 321 320 313 12 246 246 251 247 244 260 231 194 210 182 174 212 221 234 202 180 214 200 192 208 214 225 263 221 250 260 183 186 250 65 127 275 323 122 139 205 211 118 151 228 157 175 226 246 246 260 273 275 273 250 256 291 320 266 247 239 233 232 237 236 237 243 242 231 221
274 278 279 280 279 265 247 239 223 205 184 168 226 226 217 222 224 236 258 290 305 280 261 229 225 272 285 272 287 270 199 218 194 193 216 211 235 201 171 212 219 205 211 207 207 241 208 228 250 216 185 209 53 180 196 208 196 107 351 333 90 178 187 185 182 168 222 243 257 271 280 275 251 241 246 242 234 232 236 236 237 239 240 242 242 241 235 225
269 267 265 259 225 186 203 205 198 188 177 212 219 219 249 272 269 255 240 239 247 252 248 223 226 267 285 295 308 306 253 256 236 246 242 212 240 244 169 215 320 280 235 212 212 228 198 224 237 272 357 231 199 207 181 178 196 184 215 248 246 221 174 221 238 172 209 236 245 251 262 270 262 191 157 235 225 213 220 219 227 235 238 242 244 242 237 230
252 249 249 234 199 173 178 181 181 179 199 233 226 237 247 247 255 246 236 228 223 260 275 197 258 271 283 291 298 303 303 315 314 292 281 258 267 283 46 43 29 4 324 264 239 253 204 232 239 215 292 244 239 220 186 181 183 179 199 213 214 220 219 256 250 221 217 234 235 245 252 264 268 192 117 240 212 201 216 212 220 231 231 237 245 246 241 234
221 234 244 227 206 184 176 172 179 192 199 213 228 231 210 221 239 245 248 242 229 231 225 211 239 231 233 250 253 263 283 289 281 271 264 274 289 289 308 332 351 11 352 294 255 295 360 203 258 253 230 247 258 239 202 199 187 164 190 205 201 210 206 234 248 246 260 254 240 254 253 257 271 273 290 297 258 216 226 221 226 240 235 234 236 237 240 240
215 232 240 236 224 196 181 177 214 199 210 235 231 230 213 212 231 238 241 231 216 210 202 210 218 217 222 220 221 231 228 225 224 228 244 262 276 270 274 290 303 339 16 306 307 339 343 81 270 277 289 301 305 306 222 188 149 122 216 203 191 212 215 227 250 273 278 266 257 263 258 260 277 280 294 302 290 259 238 229 224 234 238 234 230 235 250 258
230 241 238 236 226 203 189 186 211 202 224 236 237 244 237 236 240 243 238 209 203 206 206 222 217 220 226 206 205 213 202 216 227 222 230 233 246 254 259 272 279 288 30 257 282 358 319 351 33 312 297 304 308 303 268 220 164 185 211 206 208 227 235 241 261 273 264 255 251 261 264 258 271 278 288 289 282 275 252 237 231 236 243 242 247 255 261 265
250 249 238 224 209 204 207 217 219 217 215 223 234 235 237 247 231 233 239 235 223 213 212 241 218 212 220 201 214 220 203 215 234 219 214 211 239 255 250 255 261 258 246 238 201 105 248 207 115 231 241 248 248 254 246 210 193 229 217 221 224 227 233 239 249 247 243 240 236 245 254 251 259 272 278 276 272 268 258 247 244 249 258 261 262 265 269 273
263 253 240 221 206 209 222 228 227 230 211 220 235 223 226 240 235 232 237 241 239 229 227 245 222 201 213 203 223 239 222 222 229 219 207 211 233 248 236 240 238 231 242 238 199 146 152 192 205 217 223 232 235 243 246 217 217 246 242 234 231 230 232 232 233 238 241 244 238 235 243 249 252 260 269 271 270 269 265 258 252 249 253 259 264 269 273 276
256 253 230 214 210 217 229 231 228 226 209 215 222 204 223 232 240 233 224 223 231 228 226 235 219 214 222 214 224 237 232 229 229 229 232 228 235 248 238 239 232 229 241 233 189 168 161 205 215 221 224 229 235 243 248 246 242 246 247 244 242 237 232 231 233 236 238 248 249 236 236 247 249 248 257 265 268 270 269 268 267 259 254 256 261 266 268 269
233 269 264 274 244 226 229 232 239 243 226 221 219 220 236 237 231 222 218 228 229 213 208 236 222 219 228 230 237 245 237 238 236 233 237 233 234 254 254 247 239 237 240 223 179 176 204 225 220 225 230 229 233 239 243 247 249 248 248 249 249 246 239 236 239 239 235 240 250 247 242 247 249 245 251 256 260 266 272 278 279 274 266 261 257 257 261 267
248 282 285 294 302 280 288 304 317 304 260 250 247 226 240 246 244 249 255 259 242 207 209 231 223 220 227 228 234 241 235 240 242 230 230 234 227 232 249 250 243 235 228 215 190 184 207 229 217 227 238 233 231 236 239 243 248 249 248 246 248 250 247 243 244 244 242 245 253 257 255 253 253 252 254 257 260 267 277 282 281 278 273 266 257 254 263 272
256 275 296 315 309 285 293 303 326 329 296 281 268 230 243 260 266 283 292 261 286 258 227 243 248 247 247 244 245 245 242 253 264 261 271 275 246 231 245 252 252 235 209 206 218 197 206 219 210 224 244 238 232 236 236 236 241 244 245 245 246 249 250 250 250 249 249 252 252 252 255 257 257 255 256 259 264 268 271 273 275 273 271 269 267 270 274 277
247 262 293 315 298 271 282 287 306 321 283 248 238 234 250 260 272 299 295 260 261 265 266 285 302 317 316 302 286 280 297 309 306 310 320 310 292 287 282 272 280 285 193 194 220 201 210 228 220 230 250 237 228 234 234 234 237 239 241 244 244 243 243 244 244 241 240 246 250 250 252 253 250 250 251 254 258 261 260 261 265 266 269 274 281 281 278 279
254 261 266 280 269 250 261 285 308 271 258 245 256 292 295 296 318 324 304 276 270 290 318 335 336 332 321 311 309 317 322 318 307 306 304 294 285 280 275 269 264 258 235 218 229 199 202 227 230 234 252 245 231 234 234 233 236 235 230 233 236 237 239 242 245 244 240 238 244 246 244 244 245 245 247 249 249 250 250 251 255 263 270 278 283 280 279 281